Location: Unspecified
(49.2170°N, 0.0000°E)
Time: 16:13:25
(UTC+00:00)

Transit 4A - Pass Details

Date: 24 June 2019
Orbit: 862 x 982 km, 66.8° (Epoch: 18 July)

Event Time Altitude Azimuth Distance (km) Brightness Sun altitude
Rises 12:57:20 0° 313° (NW) 3,694 11.0 62.0°
Reaches altitude 10° 13:00:56 10° 332° (NNW) 2,747 10.3 61.7°
Maximum altitude 13:05:07 18° 13° (NNE) 2,231 9.8 61.4°
Drops below altitude 10° 13:09:17 10° 54° (NE) 2,728 10.2 61.0°
Sets 13:12:49 0° 73° (ENE) 3,658 10.8 60.7°
